This is the latest recevied weather packets stored in our database for station/object N3WPH. If no packets are shown the sender has not sent any weather packets the latest 10 day(s).
| Time | Temp. | Humidity | Pressure | Rain* | Wind** | Luminosity | Snow |
|---|---|---|---|---|---|---|---|
| 1777904240 | 16.11° C | 42% | 1011.7 hPa | 0 mm | - | 571 W/m² | - |
| 1777903937 | 16.11° C | 41% | 1011.8 hPa | 0 mm | - | 552 W/m² | - |
| 1777903634 | 16.11° C | 44% | 1011.9 hPa | 0 mm | - | 541 W/m² | - |
| 1777903329 | 16.11° C | 44% | 1012.2 hPa | 0 mm | - | 525 W/m² | - |
| 1777903027 | 15.56° C | 46% | 1012.2 hPa | 0 mm | - | 516 W/m² | - |
| 1777902723 | 15° C | 44% | 1011.9 hPa | 0 mm | - | 498 W/m² | - |
| 1777902420 | 14.44° C | 45% | 1012.1 hPa | 0 mm | - | 493 W/m² | - |
| 1777902116 | 13.33° C | 46% | 1012.3 hPa | 0 mm | - | 386 W/m² | - |
| 1777901816 | 13.89° C | 47% | 1012.3 hPa | 0 mm | - | 335 W/m² | - |
| 1777901512 | 13.33° C | 48% | 1012.4 hPa | 0 mm | - | 454 W/m² | - |
| 1777901210 | 12.22° C | 49% | 1012.4 hPa | 0 mm | - | 135 W/m² | - |
| 1777900907 | 12.22° C | 49% | 1012.5 hPa | 0 mm | - | 149 W/m² | - |
| 1777900604 | 12.22° C | 50% | 1012.5 hPa | 0 mm | - | 138 W/m² | - |
| 1777900301 | 12.22° C | 48% | 1012.6 hPa | 0 mm | - | 169 W/m² | - |
| 1777899998 | 12.22° C | 51% | 1012.5 hPa | 0 mm | - | 167 W/m² | - |
| 1777899694 | 12.22° C | 48% | 1012.7 hPa | 0 mm | - | 157 W/m² | - |
| 1777899392 | 12.22° C | 50% | 1012.8 hPa | 0 mm | - | 154 W/m² | - |
| 1777899090 | 11.67° C | 49% | 1012.7 hPa | 0 mm | - | 156 W/m² | - |
| 1777898786 | 11.67° C | 48% | 1012.6 hPa | 0 mm | - | 152 W/m² | - |
| 1777898484 | 12.22° C | 50% | 1012.7 hPa | 0 mm | - | 140 W/m² | - |
| 1777898182 | 12.78° C | 47% | 1012.7 hPa | 0 mm | - | 142 W/m² | - |
| 1777897879 | 11.67° C | 50% | 1012.8 hPa | 0 mm | - | 241 W/m² | - |
| 1777897575 | 11.67° C | 50% | 1012.6 hPa | 0 mm | - | 139 W/m² | - |
| 1777897270 | 12.22° C | 49% | 1012.9 hPa | 0 mm | - | 134 W/m² | - |
| 1777896967 | 11.67° C | 49% | 1012.7 hPa | 0 mm | - | 334 W/m² | - |
* Rain latest hour (hover to see other rain measurements)
** Current wind speed in m/s (hover to see current wind gust speed)